Florence, SC

12:20 PM EST on February 26, 2017 (GMT -0500)
Florence Regional

Weather History for KFLO - January, 2014

Change the Weather History Date:

Friday, January 17, 2014

  Actual Average Record
Temperature  
Mean Temperature 43 °F 45 °F  
Max Temperature 58 °F 55 °F 80 °F (2013)
Min Temperature 28 °F 35 °F 12 °F (1977)
Degree Days  
Heating Degree Days 22 20  
Month to date heating degree days 359 347  
Since 1 July heating degree days 1271 1326  
Cooling Degree Days 0 0  
Month to date cooling degree days 0 0  
Year to date cooling degree days 0 0  
Moisture  
Dew Point 30 °F    
Average Humidity 59    
Maximum Humidity 78    
Minimum Humidity 40    
Precipitation  
Precipitation 0.00 in 0.10 in 0.90 in (2010)
Month to date precipitation 2.01 1.80  
Year to date precipitation 2.01 1.80  
Sea Level Pressure  
Sea Level Pressure 29.98 in    
Wind  
Wind Speed 7 mph (SSW)    
Max Wind Speed 18 mph    
Max Gust Speed 26 mph    
Visibility 10 miles    
Events      
T = Trace of Precipitation, MM = Missing Value Source: NWS Daily Summary

Daily Weather History Graph

Daily Weather History Graph

Search for Another Location

Airport or City:

Trip Planner

Search our weather history database for the weather conditions in past years. The results will help you decide how hot, cold, wet, or windy it might be!

Date:

Astronomy

Jan. 17, 2014 Rise Set
Actual Time 7:24 AM EST 5:34 PM EST
Civil Twilight 6:56 AM EST 6:01 PM EST
Nautical Twilight 6:26 AM EST 6:32 PM EST
Astronomical Twilight 5:56 AM EST 7:02 PM EST
Moon 7:12 PM EST (1/17) 7:56 AM EST (1/17)
Length of Visible Light 11h 04m
Length of Day
10h 10m
Full, 98% of the Moon is Illuminated
Jan 17
Full
Jan 24
Last Quarter
Jan 30
New
Feb 6
First Quarter
Feb 14
Full

Hourly Weather History & Observations

Time (EST) Temp. Windchill Dew Point Humidity Pressure Visibility Wind Dir Wind Speed Gust Speed Precip Events Conditions
1:53 AM 33.1 °F 28.7 °F 24.1 °F 70% 30.07 in 10.0 mi SSW 4.6 mph - N/A   Unknown
2:53 AM 30.9 °F 27.5 °F 23.0 °F 72% 30.07 in 10.0 mi SSW 3.5 mph - N/A   Clear
3:53 AM 32.0 °F 27.5 °F 23.0 °F 69% 30.05 in 10.0 mi SW 4.6 mph - N/A   Clear
4:53 AM 30.9 °F 26.2 °F 23.0 °F 72% 30.05 in 10.0 mi SW 4.6 mph - N/A   Clear
5:53 AM 30.0 °F 26.5 °F 21.9 °F 72% 30.05 in 10.0 mi South 3.5 mph - N/A   Clear
6:53 AM 28.9 °F 25.2 °F 23.0 °F 78% 30.05 in 10.0 mi SSW 3.5 mph - N/A   Clear
7:53 AM 30.0 °F 26.5 °F 24.1 °F 79% 30.05 in 10.0 mi South 3.5 mph - N/A   Clear
8:53 AM 37.0 °F 31.6 °F 25.0 °F 62% 30.06 in 10.0 mi SSW 6.9 mph - N/A   Clear
9:53 AM 44.1 °F 39.0 °F 26.1 °F 49% 30.07 in 10.0 mi SW 9.2 mph - N/A   Clear
10:53 AM 48.9 °F - 28.0 °F 44% 30.06 in 10.0 mi SSW 10.4 mph - N/A   Clear
11:53 AM 52.0 °F - 30.0 °F 43% 30.03 in 10.0 mi SSW 9.2 mph - N/A   Clear
12:53 PM 55.0 °F - 32.0 °F 42% 29.97 in 10.0 mi SSW 8.1 mph - N/A   Clear
1:53 PM 57.9 °F - 34.0 °F 41% 29.94 in 10.0 mi SSW 15.0 mph - N/A   Clear
2:53 PM 57.0 °F - 34.0 °F 42% 29.93 in 10.0 mi WSW 13.8 mph 18.4 mph N/A   Clear
3:53 PM 57.0 °F - 35.1 °F 44% 29.91 in 10.0 mi SW 9.2 mph 19.6 mph N/A   Clear
4:53 PM 57.0 °F - 35.1 °F 44% 29.91 in 10.0 mi SW 10.4 mph - N/A   Clear
5:53 PM 52.0 °F - 35.1 °F 53% 29.89 in 10.0 mi South 4.6 mph - N/A   Clear
6:53 PM 46.9 °F - 36.0 °F 66% 29.90 in 10.0 mi Calm Calm - N/A   Clear
7:53 PM 48.9 °F - 36.0 °F 61% 29.91 in 10.0 mi South 3.5 mph - N/A   Clear
8:53 PM 46.0 °F 43.9 °F 37.0 °F 71% 29.91 in 10.0 mi South 4.6 mph - N/A   Clear
9:53 PM 46.9 °F - 39.0 °F 74% 29.91 in 10.0 mi SSW 5.8 mph - N/A   Mostly Cloudy
10:53 PM 48.0 °F - 37.9 °F 68% 29.91 in 10.0 mi West 6.9 mph - N/A   Scattered Clouds
11:53 PM 48.9 °F - 23.0 °F 36% 29.90 in 10.0 mi NW 15.0 mph 23.0 mph N/A   Clear